Time,TemperatureF,DewpointF,PressureIn,WindDirection,WindDirectionDegrees,WindSpeedMPH,WindSpeedGustMPH,Humidity,HourlyPrecipIn,Conditions,Clouds,dailyrainin,SoftwareType,DateUTC
2013-02-08 00:00:00,25.8,17.0,30.47,NE,34,0.0,0.0,69,0.00,,---,0.00,VWS V14.01,2013-02-08 05:00:00,
2013-02-08 00:05:00,25.7,17.0,30.46,NE,34,0.0,0.0,69,0.00,,---,0.00,VWS V14.01,2013-02-08 05:05:00,
2013-02-08 00:10:00,25.6,16.9,30.46,NE,34,0.0,0.0,69,0.00,,---,0.00,VWS V14.01,2013-02-08 05:10:00,
2013-02-08 00:15:00,25.6,16.9,30.46,NE,34,0.0,0.0,69,0.00,,---,0.00,VWS V14.01,2013-02-08 05:15:00,
2013-02-08 00:20:00,25.4,17.0,30.46,NE,34,0.0,0.0,70,0.00,,---,0.00,VWS V14.01,2013-02-08 05:20:00,
2013-02-08 00:25:00,25.3,16.9,30.46,NE,34,0.0,0.0,70,0.00,,---,0.00,VWS V14.01,2013-02-08 05:25:00,
2013-02-08 00:30:00,25.3,17.2,30.45,NE,34,0.0,0.0,71,0.00,,---,0.00,VWS V14.01,2013-02-08 05:30:00,
2013-02-08 00:35:00,25.1,17.0,30.45,NE,34,0.0,0.0,71,0.00,,---,0.00,VWS V14.01,2013-02-08 05:35:00,
2013-02-08 00:40:00,25.1,17.4,30.45,NE,34,0.0,0.0,72,0.00,,---,0.00,VWS V14.01,2013-02-08 05:40:00,
2013-02-08 00:45:00,25.1,17.4,30.44,NE,34,0.0,0.0,72,0.00,,---,0.00,VWS V14.01,2013-02-08 05:45:00,
2013-02-08 00:50:00,25.3,17.9,30.44,NE,34,0.0,0.0,73,0.00,,---,0.00,VWS V14.01,2013-02-08 05:50:00,
2013-02-08 00:55:00,25.3,17.9,30.44,NE,34,0.0,0.0,73,0.00,,---,0.00,VWS V14.01,2013-02-08 05:55:00,
2013-02-08 01:00:00,25.3,18.2,30.43,NE,34,2.0,2.0,74,0.00,,---,0.00,VWS V14.01,2013-02-08 06:00:00,
2013-02-08 01:05:00,25.3,18.2,30.43,NE,34,3.0,3.0,74,0.00,,---,0.00,VWS V14.01,2013-02-08 06:05:00,
2013-02-08 01:10:00,25.4,18.3,30.43,NE,34,3.0,3.0,74,0.00,,---,0.00,VWS V14.01,2013-02-08 06:10:00,
2013-02-08 01:15:00,25.4,18.6,30.42,NE,34,1.0,3.0,75,0.00,,---,0.00,VWS V14.01,2013-02-08 06:15:00,
2013-02-08 01:20:00,25.4,18.6,30.42,NE,34,2.0,3.0,75,0.00,,---,0.00,VWS V14.01,2013-02-08 06:20:00,
2013-02-08 01:25:00,25.4,18.6,30.42,NE,34,1.0,3.0,75,0.00,,---,0.00,VWS V14.01,2013-02-08 06:25:00,
2013-02-08 01:30:00,25.4,18.9,30.42,NE,34,2.0,5.0,76,0.00,,---,0.00,VWS V14.01,2013-02-08 06:30:00,
2013-02-08 01:35:00,25.6,19.1,30.42,NE,34,1.0,6.0,76,0.00,,---,0.00,VWS V14.01,2013-02-08 06:35:00,
2013-02-08 01:40:00,25.6,19.1,30.42,NE,34,1.0,5.0,76,0.00,,---,0.00,VWS V14.01,2013-02-08 06:40:00,
2013-02-08 01:45:00,25.7,19.5,30.41,NE,34,2.0,3.0,77,0.00,,---,0.00,VWS V14.01,2013-02-08 06:45:00,
2013-02-08 01:50:00,25.7,19.5,30.41,NE,34,1.0,3.0,77,0.00,,---,0.00,VWS V14.01,2013-02-08 06:50:00,
2013-02-08 01:55:00,25.8,19.9,30.41,NE,49,2.0,6.0,78,0.00,,---,0.00,VWS V14.01,2013-02-08 06:55:00,
2013-02-08 02:00:00,26.0,20.1,30.40,NE,40,3.0,5.0,78,0.00,,---,0.00,VWS V14.01,2013-02-08 07:00:00,
2013-02-08 02:05:00,26.3,20.7,30.40,NNE,25,3.0,6.0,79,0.00,,---,0.00,VWS V14.01,2013-02-08 07:05:00,
2013-02-08 02:10:00,26.4,20.8,30.40,NNE,27,2.0,4.0,79,0.00,,---,0.00,VWS V14.01,2013-02-08 07:10:00,
2013-02-08 02:15:00,26.7,21.1,30.40,NE,56,3.0,6.0,79,0.00,,---,0.00,VWS V14.01,2013-02-08 07:15:00,
2013-02-08 02:20:00,27.0,21.4,30.40,NE,54,3.0,6.0,79,0.00,,---,0.00,VWS V14.01,2013-02-08 07:20:00,
2013-02-08 02:25:00,27.3,21.7,30.40,NNE,24,3.0,6.0,79,0.00,,---,0.00,VWS V14.01,2013-02-08 07:25:00,
2013-02-08 02:30:00,27.5,22.1,30.38,NNE,21,3.0,3.0,80,0.00,,---,0.00,VWS V14.01,2013-02-08 07:30:00,
2013-02-08 02:35:00,27.6,22.2,30.38,NNE,31,3.0,4.0,80,0.00,,---,0.00,VWS V14.01,2013-02-08 07:35:00,
2013-02-08 02:40:00,27.8,22.4,30.38,NE,40,1.0,5.0,80,0.00,,---,0.00,VWS V14.01,2013-02-08 07:40:00,
2013-02-08 02:45:00,27.8,22.4,30.38,NE,40,3.0,4.0,80,0.00,,---,0.00,VWS V14.01,2013-02-08 07:45:00,
2013-02-08 02:50:00,28.1,22.7,30.38,NE,44,1.0,5.0,80,0.00,,---,0.00,VWS V14.01,2013-02-08 07:50:00,
2013-02-08 02:55:00,28.2,22.8,30.38,NE,49,7.0,8.0,80,0.00,,---,0.00,VWS V14.01,2013-02-08 07:55:00,
2013-02-08 03:00:00,28.5,23.1,30.37,NE,41,2.0,5.0,80,0.00,,---,0.00,VWS V14.01,2013-02-08 08:00:00,
2013-02-08 03:05:00,28.7,23.3,30.37,NE,54,4.0,5.0,80,0.00,,---,0.00,VWS V14.01,2013-02-08 08:05:00,
2013-02-08 03:10:00,28.8,23.4,30.37,NE,49,3.0,7.0,80,0.00,,---,0.00,VWS V14.01,2013-02-08 08:10:00,
2013-02-08 03:15:00,29.0,23.6,30.37,NE,35,2.0,11.0,80,0.00,,---,0.00,VWS V14.01,2013-02-08 08:15:00,
2013-02-08 03:20:00,29.0,23.6,30.37,NE,56,1.0,6.0,80,0.00,,---,0.00,VWS V14.01,2013-02-08 08:20:00,
2013-02-08 03:25:00,29.0,23.3,30.37,NE,49,5.0,7.0,79,0.00,,---,0.00,VWS V14.01,2013-02-08 08:25:00,
2013-02-08 03:30:00,29.1,23.4,30.36,NE,55,2.0,5.0,79,0.00,,---,0.00,VWS V14.01,2013-02-08 08:30:00,
2013-02-08 03:35:00,29.1,23.4,30.36,NE,55,3.0,3.0,79,0.00,,---,0.00,VWS V14.01,2013-02-08 08:35:00,
2013-02-08 03:40:00,29.1,23.7,30.36,NE,49,4.0,5.0,80,0.00,,---,0.00,VWS V14.01,2013-02-08 08:40:00,
2013-02-08 03:45:00,29.3,23.9,30.36,ENE,65,2.0,6.0,80,0.00,,---,0.00,VWS V14.01,2013-02-08 08:45:00,
2013-02-08 03:50:00,29.3,23.6,30.36,NE,40,3.0,6.0,79,0.00,,---,0.00,VWS V14.01,2013-02-08 08:50:00,
2013-02-08 03:55:00,29.3,23.9,30.36,ENE,59,6.0,7.0,80,0.00,,---,0.00,VWS V14.01,2013-02-08 08:55:00,
2013-02-08 04:00:00,29.4,24.0,30.35,NE,42,1.0,7.0,80,0.00,,---,0.00,VWS V14.01,2013-02-08 09:00:00,
2013-02-08 04:05:00,29.4,23.7,30.35,NE,55,2.0,6.0,79,0.00,,---,0.00,VWS V14.01,2013-02-08 09:05:00,
2013-02-08 04:10:00,29.4,24.0,30.35,East,88,2.0,7.0,80,0.00,,---,0.00,VWS V14.01,2013-02-08 09:10:00,
2013-02-08 04:15:00,29.4,24.0,30.35,NE,54,2.0,6.0,80,0.00,,---,0.00,VWS V14.01,2013-02-08 09:15:00,
2013-02-08 04:20:00,29.5,24.1,30.35,ESE,103,3.0,6.0,80,0.00,,---,0.00,VWS V14.01,2013-02-08 09:20:00,
2013-02-08 04:25:00,29.5,24.1,30.35,NE,47,1.0,5.0,80,0.00,,---,0.00,VWS V14.01,2013-02-08 09:25:00,
2013-02-08 04:30:00,29.5,24.1,30.34,NE,48,3.0,4.0,80,0.00,,---,0.00,VWS V14.01,2013-02-08 09:30:00,
2013-02-08 04:35:00,29.5,24.1,30.34,NE,49,2.0,3.0,80,0.00,,---,0.00,VWS V14.01,2013-02-08 09:35:00,
2013-02-08 04:40:00,29.5,24.1,30.34,NE,47,1.0,3.0,80,0.00,,---,0.00,VWS V14.01,2013-02-08 09:40:00,
2013-02-08 04:45:00,29.5,24.1,30.34,NE,47,2.0,7.0,80,0.00,,---,0.00,VWS V14.01,2013-02-08 09:45:00,
2013-02-08 04:50:00,29.7,24.3,30.34,East,82,3.0,6.0,80,0.00,,---,0.00,VWS V14.01,2013-02-08 09:50:00,
2013-02-08 04:55:00,29.7,24.3,30.34,NE,55,4.0,8.0,80,0.00,,---,0.00,VWS V14.01,2013-02-08 09:55:00,
2013-02-08 05:00:00,29.8,24.4,30.33,NE,51,1.0,7.0,80,0.00,,---,0.00,VWS V14.01,2013-02-08 10:00:00,
2013-02-08 05:05:00,29.8,24.4,30.33,ENE,71,3.0,5.0,80,0.00,,---,0.00,VWS V14.01,2013-02-08 10:05:00,
2013-02-08 05:10:00,30.0,24.3,30.33,East,93,5.0,7.0,79,0.00,,---,0.00,VWS V14.01,2013-02-08 10:10:00,
2013-02-08 05:15:00,30.0,24.3,30.33,ENE,65,2.0,10.0,79,0.00,,---,0.00,VWS V14.01,2013-02-08 10:15:00,
2013-02-08 05:20:00,30.0,24.3,30.33,NE,52,3.0,8.0,79,0.00,,---,0.00,VWS V14.01,2013-02-08 10:20:00,
2013-02-08 05:25:00,30.0,24.3,30.33,NE,47,3.0,6.0,79,0.00,,---,0.00,VWS V14.01,2013-02-08 10:25:00,
2013-02-08 05:30:00,30.0,24.3,30.31,NE,51,2.0,7.0,79,0.00,,---,0.00,VWS V14.01,2013-02-08 10:30:00,
2013-02-08 05:35:00,30.0,24.3,30.31,ENE,76,3.0,6.0,79,0.00,,---,0.00,VWS V14.01,2013-02-08 10:35:00,
2013-02-08 05:40:00,30.1,24.4,30.31,ENE,75,2.0,10.0,79,0.00,,---,0.00,VWS V14.01,2013-02-08 10:40:00,
2013-02-08 05:45:00,30.1,24.4,30.31,ENE,58,4.0,8.0,79,0.00,,---,0.00,VWS V14.01,2013-02-08 10:45:00,
2013-02-08 05:50:00,30.1,24.4,30.31,NE,54,3.0,6.0,79,0.00,,---,0.00,VWS V14.01,2013-02-08 10:50:00,
2013-02-08 05:55:00,30.1,24.4,30.31,NE,55,6.0,10.0,79,0.00,,---,0.00,VWS V14.01,2013-02-08 10:55:00,
2013-02-08 06:00:00,30.1,24.4,30.31,East,88,3.0,6.0,79,0.00,,---,0.00,VWS V14.01,2013-02-08 11:00:00,
2013-02-08 06:05:00,30.1,24.4,30.31,NE,47,2.0,11.0,79,0.00,,---,0.00,VWS V14.01,2013-02-08 11:05:00,
2013-02-08 06:10:00,30.1,24.7,30.31,NE,52,2.0,2.0,80,0.00,,---,0.00,VWS V14.01,2013-02-08 11:10:00,
2013-02-08 06:15:00,30.1,24.7,30.30,NE,51,7.0,8.0,80,0.00,,---,0.00,VWS V14.01,2013-02-08 11:15:00,
2013-02-08 06:20:00,30.1,24.7,30.30,NE,56,5.0,8.0,80,0.00,,---,0.00,VWS V14.01,2013-02-08 11:20:00,
2013-02-08 06:25:00,30.1,24.7,30.30,NNE,23,2.0,6.0,80,0.00,,---,0.00,VWS V14.01,2013-02-08 11:25:00,
2013-02-08 06:30:00,30.3,24.9,30.30,NE,40,9.0,10.0,80,0.00,,---,0.00,VWS V14.01,2013-02-08 11:30:00,
2013-02-08 06:35:00,30.3,24.9,30.30,NE,44,3.0,7.0,80,0.00,,---,0.00,VWS V14.01,2013-02-08 11:35:00,
2013-02-08 06:40:00,30.3,24.9,30.30,East,95,4.0,6.0,80,0.00,,---,0.00,VWS V14.01,2013-02-08 11:40:00,
2013-02-08 06:45:00,30.4,25.0,30.31,East,82,2.0,6.0,80,0.00,,---,0.00,VWS V14.01,2013-02-08 11:45:00,
2013-02-08 06:50:00,30.6,25.2,30.31,NNE,32,2.0,8.0,80,0.00,,---,0.00,VWS V14.01,2013-02-08 11:50:00,
2013-02-08 06:55:00,30.6,25.2,30.31,East,88,1.0,8.0,80,0.00,,---,0.00,VWS V14.01,2013-02-08 11:55:00,
2013-02-08 07:00:00,30.7,25.3,30.31,ENE,62,4.0,4.0,80,0.00,,---,0.00,VWS V14.01,2013-02-08 12:00:00,
2013-02-08 07:05:00,30.7,25.0,30.31,NE,55,4.0,6.0,79,0.00,,---,0.00,VWS V14.01,2013-02-08 12:05:00,
2013-02-08 07:10:00,30.9,25.2,30.31,NE,55,3.0,8.0,79,0.00,,---,0.00,VWS V14.01,2013-02-08 12:10:00,
2013-02-08 07:15:00,30.9,25.2,30.30,ENE,59,1.0,7.0,79,0.00,,---,0.00,VWS V14.01,2013-02-08 12:15:00,
2013-02-08 07:20:00,30.9,25.2,30.30,NE,55,5.0,11.0,79,0.00,,---,0.00,VWS V14.01,2013-02-08 12:20:00,
2013-02-08 07:25:00,30.9,25.2,30.30,North,8,8.0,11.0,79,0.00,,---,0.00,VWS V14.01,2013-02-08 12:25:00,
2013-02-08 07:30:00,30.9,25.2,30.29,NE,37,5.0,7.0,79,0.00,,---,0.00,VWS V14.01,2013-02-08 12:30:00,
2013-02-08 07:35:00,30.9,25.2,30.29,NE,54,2.0,10.0,79,0.00,,---,0.00,VWS V14.01,2013-02-08 12:35:00,
2013-02-08 07:40:00,30.9,25.2,30.29,ENE,65,12.0,12.0,79,0.00,,---,0.00,VWS V14.01,2013-02-08 12:40:00,
2013-02-08 07:45:00,31.0,25.6,30.28,NNE,28,5.0,8.0,80,0.00,,---,0.00,VWS V14.01,2013-02-08 12:45:00,
2013-02-08 07:51:00,31.0,25.6,30.28,NE,54,2.0,8.0,80,0.00,,---,0.00,VWS V14.01,2013-02-08 12:51:00,
2013-02-08 07:55:00,31.0,25.6,30.28,NE,51,4.0,10.0,80,0.00,,---,0.00,VWS V14.01,2013-02-08 12:55:00,
2013-02-08 08:00:00,31.0,25.6,30.27,NE,47,3.0,6.0,80,0.00,,---,0.00,VWS V14.01,2013-02-08 13:00:00,
2013-02-08 08:06:00,31.0,25.6,30.27,NE,41,10.0,11.0,80,0.00,,---,0.00,VWS V14.01,2013-02-08 13:06:00,
2013-02-08 08:11:00,31.0,25.6,30.27,NNE,32,4.0,8.0,80,0.00,,---,0.00,VWS V14.01,2013-02-08 13:11:00,
2013-02-08 08:16:00,31.0,25.9,30.27,NE,47,3.0,6.0,81,0.00,,---,0.00,VWS V14.01,2013-02-08 13:16:00,
2013-02-08 08:21:00,31.0,25.9,30.27,ENE,76,3.0,7.0,81,0.00,,---,0.00,VWS V14.01,2013-02-08 13:21:00,
2013-02-08 08:26:00,31.2,26.1,30.27,NNE,23,12.0,12.0,81,0.00,,---,0.00,VWS V14.01,2013-02-08 13:26:00,
2013-02-08 08:31:00,31.2,26.1,30.27,ENE,59,2.0,12.0,81,0.00,,---,0.00,VWS V14.01,2013-02-08 13:31:00,
2013-02-08 08:36:00,31.2,26.1,30.27,NE,48,2.0,7.0,81,0.00,,---,0.00,VWS V14.01,2013-02-08 13:36:00,
2013-02-08 08:41:00,31.3,26.2,30.27,NE,54,7.0,8.0,81,0.00,,---,0.00,VWS V14.01,2013-02-08 13:41:00,
2013-02-08 08:46:00,31.2,26.6,30.26,ENE,62,5.0,11.0,83,0.00,,---,0.00,VWS V14.01,2013-02-08 13:46:00,
2013-02-08 08:51:00,31.2,26.6,30.26,ENE,58,4.0,11.0,83,0.00,,---,0.00,VWS V14.01,2013-02-08 13:51:00,
2013-02-08 08:56:00,31.3,26.8,30.26,NE,45,3.0,6.0,83,0.00,,---,0.00,VWS V14.01,2013-02-08 13:56:00,
2013-02-08 09:01:00,31.3,27.0,30.25,NE,52,1.0,10.0,84,0.00,,---,0.00,VWS V14.01,2013-02-08 14:01:00,
2013-02-08 09:06:00,31.3,27.0,30.25,ENE,58,3.0,3.0,84,0.00,,---,0.00,VWS V14.01,2013-02-08 14:06:00,
2013-02-08 09:11:00,31.3,27.0,30.25,NE,38,2.0,5.0,84,0.00,,---,0.00,VWS V14.01,2013-02-08 14:11:00,
2013-02-08 09:16:00,31.5,27.2,30.25,NE,55,2.0,2.0,84,0.00,,---,0.00,VWS V14.01,2013-02-08 14:16:00,
2013-02-08 09:21:00,31.5,27.2,30.25,NE,35,3.0,3.0,84,0.00,,---,0.00,VWS V14.01,2013-02-08 14:21:00,
2013-02-08 09:26:00,31.5,27.2,30.25,NE,44,6.0,6.0,84,0.00,,---,0.00,VWS V14.01,2013-02-08 14:26:00,
2013-02-08 09:31:00,31.5,27.5,30.23,ENE,72,4.0,4.0,85,0.00,,---,0.00,VWS V14.01,2013-02-08 14:31:00,
2013-02-08 09:36:00,31.5,27.5,30.23,NE,56,1.0,1.0,85,0.00,,---,0.00,VWS V14.01,2013-02-08 14:36:00,
2013-02-08 09:41:00,31.5,27.8,30.23,NE,47,1.0,2.0,86,0.00,,---,0.00,VWS V14.01,2013-02-08 14:41:00,
2013-02-08 09:46:00,31.5,28.1,30.23,ENE,62,7.0,8.0,87,0.00,,---,0.00,VWS V14.01,2013-02-08 14:46:00,
2013-02-08 09:51:00,31.5,28.1,30.23,NE,40,3.0,3.0,87,0.00,,---,0.00,VWS V14.01,2013-02-08 14:51:00,
2013-02-08 09:56:00,31.6,28.5,30.23,NE,51,2.0,2.0,88,0.00,,---,0.00,VWS V14.01,2013-02-08 14:56:00,
2013-02-08 10:01:00,31.6,28.5,30.22,NNE,27,1.0,2.0,88,0.00,,---,0.00,VWS V14.01,2013-02-08 15:01:00,
2013-02-08 10:06:00,31.8,28.7,30.22,NE,34,2.0,4.0,88,0.00,,---,0.00,VWS V14.01,2013-02-08 15:06:00,
2013-02-08 10:11:00,31.8,28.7,30.22,ENE,59,1.0,3.0,88,0.00,,---,0.00,VWS V14.01,2013-02-08 15:11:00,
2013-02-08 10:16:00,31.9,29.0,30.21,NE,45,2.0,3.0,89,0.00,,---,0.00,VWS V14.01,2013-02-08 15:16:00,
2013-02-08 10:21:00,31.9,29.0,30.21,NE,42,1.0,2.0,89,0.00,,---,0.00,VWS V14.01,2013-02-08 15:21:00,
2013-02-08 10:26:00,31.9,29.0,30.21,NE,38,2.0,2.0,89,0.00,,---,0.00,VWS V14.01,2013-02-08 15:26:00,
2013-02-08 10:31:00,31.9,29.3,30.20,NE,51,5.0,5.0,90,0.00,,---,0.00,VWS V14.01,2013-02-08 15:31:00,
2013-02-08 10:36:00,32.1,29.5,30.20,NE,55,3.0,7.0,90,0.00,,---,0.00,VWS V14.01,2013-02-08 15:36:00,
2013-02-08 10:41:00,32.1,29.8,30.20,NE,56,3.0,3.0,91,0.00,,---,0.00,VWS V14.01,2013-02-08 15:41:00,
2013-02-08 10:46:00,32.1,29.8,30.18,NE,34,1.0,4.0,91,0.00,,---,0.00,VWS V14.01,2013-02-08 15:46:00,
2013-02-08 10:51:00,32.1,29.8,30.18,NNE,21,5.0,10.0,91,0.00,,---,0.00,VWS V14.01,2013-02-08 15:51:00,
2013-02-08 10:56:00,32.2,29.9,30.18,NE,45,4.0,5.0,91,0.00,,---,0.00,VWS V14.01,2013-02-08 15:56:00,
2013-02-08 11:01:00,32.2,29.9,30.17,NNE,31,4.0,5.0,91,0.00,,---,0.00,VWS V14.01,2013-02-08 16:01:00,
2013-02-08 11:06:00,32.2,30.1,30.17,NE,51,2.0,3.0,92,0.00,,---,0.00,VWS V14.01,2013-02-08 16:06:00,
2013-02-08 11:11:00,32.2,30.1,30.17,NNE,30,2.0,3.0,92,0.00,,---,0.00,VWS V14.01,2013-02-08 16:11:00,
2013-02-08 11:16:00,32.2,30.1,30.15,NNE,28,2.0,2.0,92,0.00,,---,0.00,VWS V14.01,2013-02-08 16:16:00,
2013-02-08 11:21:00,32.4,30.3,30.15,NE,49,2.0,3.0,92,0.00,,---,0.00,VWS V14.01,2013-02-08 16:21:00,
2013-02-08 11:26:00,32.4,30.3,30.15,NNE,30,2.0,6.0,92,0.00,,---,0.00,VWS V14.01,2013-02-08 16:26:00,
2013-02-08 11:31:00,32.4,30.6,30.14,NE,54,2.0,2.0,93,0.00,,---,0.00,VWS V14.01,2013-02-08 16:31:00,
2013-02-08 11:36:00,32.4,30.6,30.14,NE,51,11.0,11.0,93,0.00,,---,0.00,VWS V14.01,2013-02-08 16:36:00,
2013-02-08 11:41:00,32.5,30.7,30.14,NE,56,4.0,5.0,93,0.00,,---,0.00,VWS V14.01,2013-02-08 16:41:00,
2013-02-08 11:46:00,32.5,30.7,30.11,NNE,32,3.0,3.0,93,0.00,,---,0.00,VWS V14.01,2013-02-08 16:46:00,
2013-02-08 11:51:00,32.5,31.0,30.11,NNE,16,3.0,3.0,94,0.00,,---,0.00,VWS V14.01,2013-02-08 16:51:00,
2013-02-08 11:56:00,32.7,31.2,30.11,NNE,21,2.0,2.0,94,0.00,,---,0.00,VWS V14.01,2013-02-08 16:56:00,
2013-02-08 12:01:00,32.7,31.2,30.10,ENE,58,2.0,5.0,94,0.00,,---,0.00,VWS V14.01,2013-02-08 17:01:00,
2013-02-08 12:06:00,32.7,31.2,30.10,NE,48,5.0,6.0,94,0.00,,---,0.00,VWS V14.01,2013-02-08 17:06:00,
2013-02-08 12:12:00,32.8,31.3,30.10,ENE,75,2.0,4.0,94,0.00,,---,0.00,VWS V14.01,2013-02-08 17:12:00,
2013-02-08 12:17:00,32.8,31.3,30.09,NNE,24,3.0,7.0,94,0.00,,---,0.00,VWS V14.01,2013-02-08 17:17:00,
2013-02-08 12:22:00,32.8,31.3,30.09,NE,54,2.0,4.0,94,0.00,,---,0.00,VWS V14.01,2013-02-08 17:22:00,
2013-02-08 12:27:00,32.8,31.3,30.09,NNE,25,2.0,3.0,94,0.00,,---,0.00,VWS V14.01,2013-02-08 17:27:00,
2013-02-08 12:32:00,32.8,31.5,30.08,NNE,25,8.0,8.0,95,0.00,,---,0.00,VWS V14.01,2013-02-08 17:32:00,
2013-02-08 12:37:00,32.8,31.5,30.08,NE,56,3.0,3.0,95,0.00,,---,0.00,VWS V14.01,2013-02-08 17:37:00,
2013-02-08 12:42:00,32.8,31.5,30.08,NE,52,3.0,4.0,95,0.00,,---,0.00,VWS V14.01,2013-02-08 17:42:00,
2013-02-08 12:47:00,32.8,31.5,30.06,NE,47,3.0,6.0,95,0.00,,---,0.00,VWS V14.01,2013-02-08 17:47:00,
2013-02-08 12:52:00,32.8,31.5,30.06,NNE,17,8.0,11.0,95,0.00,,---,0.00,VWS V14.01,2013-02-08 17:52:00,
2013-02-08 12:57:00,32.8,31.5,30.06,NNE,31,7.0,7.0,95,0.00,,---,0.00,VWS V14.01,2013-02-08 17:57:00,
2013-02-08 13:02:00,32.8,31.5,30.05,NE,44,5.0,8.0,95,0.00,,---,0.00,VWS V14.01,2013-02-08 18:02:00,
2013-02-08 13:07:00,32.8,31.5,30.05,NE,34,5.0,5.0,95,0.00,,---,0.00,VWS V14.01,2013-02-08 18:07:00,
2013-02-08 13:12:00,32.8,31.5,30.05,North,1,7.0,11.0,95,0.00,,---,0.00,VWS V14.01,2013-02-08 18:12:00,
2013-02-08 13:17:00,32.8,31.5,30.03,NE,42,2.0,10.0,95,0.00,,---,0.00,VWS V14.01,2013-02-08 18:17:00,
2013-02-08 13:23:00,32.8,31.5,30.03,ENE,66,2.0,5.0,95,0.00,,---,0.00,VWS V14.01,2013-02-08 18:23:00,
2013-02-08 13:28:00,32.8,31.5,30.03,ENE,59,2.0,7.0,95,0.00,,---,0.00,VWS V14.01,2013-02-08 18:28:00,
2013-02-08 13:33:00,32.8,31.5,30.02,ENE,59,3.0,4.0,95,0.00,,---,0.00,VWS V14.01,2013-02-08 18:33:00,
2013-02-08 13:38:00,32.8,31.5,30.02,ENE,62,6.0,10.0,95,0.00,,---,0.00,VWS V14.01,2013-02-08 18:38:00,
2013-02-08 13:43:00,32.8,31.5,30.02,NE,56,4.0,13.0,95,0.00,,---,0.00,VWS V14.01,2013-02-08 18:43:00,
2013-02-08 13:48:00,32.8,31.5,30.00,NE,44,6.0,11.0,95,0.00,,---,0.00,VWS V14.01,2013-02-08 18:48:00,
2013-02-08 13:53:00,32.8,31.5,30.00,ENE,61,5.0,13.0,95,0.00,,---,0.00,VWS V14.01,2013-02-08 18:53:00,
2013-02-08 13:58:00,32.8,31.8,30.00,ENE,73,7.0,11.0,96,0.00,,---,0.00,VWS V14.01,2013-02-08 18:58:00,
2013-02-08 14:03:00,32.8,31.8,29.99,ENE,61,5.0,8.0,96,0.00,,---,0.00,VWS V14.01,2013-02-08 19:03:00,
2013-02-08 14:08:00,32.8,31.8,29.99,NNE,30,8.0,10.0,96,0.00,,---,0.00,VWS V14.01,2013-02-08 19:08:00,
2013-02-08 14:13:00,32.8,31.8,29.99,NE,41,5.0,7.0,96,0.00,,---,0.00,VWS V14.01,2013-02-08 19:13:00,
2013-02-08 14:18:00,32.8,31.8,29.98,NE,55,7.0,8.0,96,0.00,,---,0.00,VWS V14.01,2013-02-08 19:18:00,
2013-02-08 14:23:00,32.8,31.8,29.98,NNE,25,6.0,10.0,96,0.00,,---,0.00,VWS V14.01,2013-02-08 19:23:00,
2013-02-08 14:28:00,32.8,31.8,29.98,NNE,23,2.0,5.0,96,0.00,,---,0.00,VWS V14.01,2013-02-08 19:28:00,
2013-02-08 14:33:00,32.8,31.8,29.96,NNE,31,14.0,14.0,96,0.00,,---,0.00,VWS V14.01,2013-02-08 19:33:00,
2013-02-08 14:38:00,32.8,31.8,29.96,ENE,59,4.0,7.0,96,0.00,,---,0.00,VWS V14.01,2013-02-08 19:38:00,
2013-02-08 14:43:00,32.8,31.8,29.96,ENE,68,2.0,10.0,96,0.00,,---,0.00,VWS V14.01,2013-02-08 19:43:00,
2013-02-08 14:48:00,32.8,31.8,29.95,NNE,18,6.0,6.0,96,0.00,,---,0.00,VWS V14.01,2013-02-08 19:48:00,
2013-02-08 14:53:00,32.8,31.8,29.95,NE,44,4.0,11.0,96,0.00,,---,0.00,VWS V14.01,2013-02-08 19:53:00,
2013-02-08 14:58:00,32.8,31.8,29.95,NE,42,3.0,8.0,96,0.00,,---,0.00,VWS V14.01,2013-02-08 19:58:00,
2013-02-08 15:03:00,32.8,31.8,29.93,NE,42,4.0,10.0,96,0.00,,---,0.00,VWS V14.01,2013-02-08 20:03:00,
2013-02-08 15:08:00,32.8,31.8,29.93,NE,44,5.0,8.0,96,0.00,,---,0.00,VWS V14.01,2013-02-08 20:08:00,
2013-02-08 15:13:00,32.8,31.8,29.93,NE,47,4.0,7.0,96,0.00,,---,0.00,VWS V14.01,2013-02-08 20:13:00,
2013-02-08 15:18:00,32.8,31.8,29.90,NNE,31,4.0,7.0,96,0.00,,---,0.00,VWS V14.01,2013-02-08 20:18:00,
2013-02-08 15:23:00,32.8,31.8,29.90,NNE,30,5.0,8.0,96,0.00,,---,0.00,VWS V14.01,2013-02-08 20:23:00,
2013-02-08 15:28:00,32.8,31.8,29.90,NE,44,10.0,11.0,96,0.00,,---,0.00,VWS V14.01,2013-02-08 20:28:00,
2013-02-08 15:33:00,32.8,31.8,29.88,NE,34,10.0,13.0,96,0.00,,---,0.00,VWS V14.01,2013-02-08 20:33:00,
2013-02-08 15:38:00,32.8,31.8,29.88,NNE,27,6.0,10.0,96,0.00,,---,0.00,VWS V14.01,2013-02-08 20:38:00,
2013-02-08 15:43:00,32.8,31.8,29.88,NE,51,7.0,19.0,96,0.00,,---,0.00,VWS V14.01,2013-02-08 20:43:00,
2013-02-08 15:48:00,32.8,31.8,29.86,ENE,58,2.0,17.0,96,0.00,,---,0.00,VWS V14.01,2013-02-08 20:48:00,
2013-02-08 15:53:00,32.8,31.8,29.86,NNE,27,10.0,17.0,96,0.00,,---,0.00,VWS V14.01,2013-02-08 20:53:00,
2013-02-08 15:58:00,32.8,31.8,29.86,NNE,30,12.0,17.0,96,0.00,,---,0.00,VWS V14.01,2013-02-08 20:58:00,
2013-02-08 16:03:00,32.8,31.8,29.85,NNE,30,2.0,8.0,96,0.00,,---,0.00,VWS V14.01,2013-02-08 21:03:00,
2013-02-08 16:08:00,32.8,31.8,29.85,NE,56,2.0,14.0,96,0.00,,---,0.00,VWS V14.01,2013-02-08 21:08:00,
2013-02-08 16:10:00,32.8,31.8,29.85,North,1,10.0,13.0,96,0.00,,---,0.00,VWS V14.01,2013-02-08 21:10:00,
2013-02-08 16:13:00,32.8,31.8,29.85,NE,41,7.0,10.0,96,0.00,,---,0.00,VWS V14.01,2013-02-08 21:13:00,
2013-02-08 16:15:00,32.8,31.8,29.83,North,6,11.0,12.0,96,0.00,,---,0.00,VWS V14.01,2013-02-08 21:15:00,
2013-02-08 16:18:00,32.8,31.8,29.83,NE,52,6.0,17.0,96,0.00,,---,0.00,VWS V14.01,2013-02-08 21:18:00,
2013-02-08 16:20:00,32.7,31.7,29.83,NNE,32,13.0,17.0,96,0.00,,---,0.00,VWS V14.01,2013-02-08 21:20:00,
2013-02-08 16:23:00,32.7,31.7,29.83,NNE,27,6.0,13.0,96,0.00,,---,0.00,VWS V14.01,2013-02-08 21:23:00,
2013-02-08 16:25:00,32.7,31.7,29.83,NNE,18,16.0,16.0,96,0.00,,---,0.00,VWS V14.01,2013-02-08 21:25:00,
2013-02-08 16:28:00,32.7,31.7,29.83,NE,52,5.0,16.0,96,0.00,,---,0.00,VWS V14.01,2013-02-08 21:28:00,
2013-02-08 16:30:00,32.7,31.7,29.82,NE,47,7.0,16.0,96,0.00,,---,0.00,VWS V14.01,2013-02-08 21:30:00,
2013-02-08 16:33:00,32.7,31.7,29.82,NNE,16,6.0,8.0,96,0.00,,---,0.00,VWS V14.01,2013-02-08 21:33:00,
2013-02-08 16:35:00,32.7,31.7,29.82,ENE,72,8.0,14.0,96,0.00,,---,0.00,VWS V14.01,2013-02-08 21:35:00,
2013-02-08 16:38:00,32.7,31.7,29.82,NE,38,7.0,13.0,96,0.00,,---,0.00,VWS V14.01,2013-02-08 21:38:00,
2013-02-08 16:40:00,32.5,31.5,29.82,NE,40,10.0,19.0,96,0.00,,---,0.00,VWS V14.01,2013-02-08 21:40:00,
2013-02-08 16:43:00,32.5,31.5,29.82,NE,38,5.0,11.0,96,0.00,,---,0.00,VWS V14.01,2013-02-08 21:43:00,
2013-02-08 16:45:00,32.5,31.5,29.81,NNE,32,7.0,12.0,96,0.00,,---,0.00,VWS V14.01,2013-02-08 21:45:00,
2013-02-08 16:48:00,32.5,31.7,29.81,NE,38,9.0,11.0,97,0.00,,---,0.00,VWS V14.01,2013-02-08 21:48:00,
2013-02-08 16:50:00,32.5,31.8,29.81,ENE,58,5.0,12.0,97,0.00,,---,0.00,VWS V14.01,2013-02-08 21:50:00,
2013-02-08 16:53:00,32.5,31.7,29.81,NNE,27,6.0,12.0,97,0.00,,---,0.00,VWS V14.01,2013-02-08 21:53:00,
2013-02-08 16:55:00,32.5,31.8,29.81,North,11,11.0,12.0,97,0.00,,---,0.00,VWS V14.01,2013-02-08 21:55:00,
2013-02-08 16:58:00,32.5,31.7,29.81,NNE,23,3.0,14.0,97,0.00,,---,0.00,VWS V14.01,2013-02-08 21:58:00,
2013-02-08 17:00:00,32.5,31.8,29.80,North,11,14.0,17.0,97,0.00,,---,0.00,VWS V14.01,2013-02-08 22:00:00,
2013-02-08 17:03:00,32.5,31.7,29.80,East,92,3.0,15.0,97,0.00,,---,0.00,VWS V14.01,2013-02-08 22:03:00,
2013-02-08 17:05:00,32.5,31.8,29.80,NNE,14,10.0,15.0,97,0.00,,---,0.00,VWS V14.01,2013-02-08 22:05:00,
2013-02-08 17:08:00,32.5,31.7,29.80,North,350,8.0,24.0,97,0.00,,---,0.00,VWS V14.01,2013-02-08 22:08:00,
2013-02-08 17:10:00,32.5,31.8,29.80,NE,45,4.0,24.0,97,0.00,,---,0.00,VWS V14.01,2013-02-08 22:10:00,
2013-02-08 17:13:00,32.5,31.7,29.80,NE,45,4.0,13.0,97,0.00,,---,0.00,VWS V14.01,2013-02-08 22:13:00,
2013-02-08 17:15:00,32.5,31.8,29.78,North,8,8.0,13.0,97,0.00,,---,0.00,VWS V14.01,2013-02-08 22:15:00,
2013-02-08 17:18:00,32.5,31.7,29.78,NNE,20,10.0,13.0,97,0.00,,---,0.00,VWS V14.01,2013-02-08 22:18:00,
2013-02-08 17:20:00,32.5,31.8,29.78,NE,51,5.0,13.0,97,0.00,,---,0.00,VWS V14.01,2013-02-08 22:20:00,
2013-02-08 17:23:00,32.5,31.7,29.78,NE,40,13.0,13.0,97,0.00,,---,0.00,VWS V14.01,2013-02-08 22:23:00,
2013-02-08 17:25:00,32.5,31.8,29.78,NE,56,7.0,13.0,97,0.00,,---,0.00,VWS V14.01,2013-02-08 22:25:00,
2013-02-08 17:28:00,32.5,31.7,29.78,NE,41,10.0,13.0,97,0.00,,---,0.00,VWS V14.01,2013-02-08 22:28:00,
2013-02-08 17:30:00,32.5,31.8,29.77,NE,40,11.0,13.0,97,0.00,,---,0.00,VWS V14.01,2013-02-08 22:30:00,
2013-02-08 17:33:00,32.5,31.7,29.77,NNE,21,4.0,11.0,97,0.00,,---,0.00,VWS V14.01,2013-02-08 22:33:00,
2013-02-08 17:35:00,32.4,31.6,29.77,NNE,25,12.0,12.0,97,0.00,,---,0.00,VWS V14.01,2013-02-08 22:35:00,
2013-02-08 17:38:00,32.4,31.6,29.77,North,8,6.0,12.0,97,0.00,,---,0.00,VWS V14.01,2013-02-08 22:38:00,
2013-02-08 17:40:00,32.4,31.6,29.77,NNE,30,5.0,12.0,97,0.00,,---,0.00,VWS V14.01,2013-02-08 22:40:00,
2013-02-08 17:43:00,32.4,31.6,29.77,North,0,7.0,7.0,97,0.00,,---,0.00,VWS V14.01,2013-02-08 22:43:00,
2013-02-08 17:45:00,32.4,31.6,29.75,ENE,62,14.0,14.0,97,0.00,,---,0.00,VWS V14.01,2013-02-08 22:45:00,
2013-02-08 17:48:00,32.4,31.6,29.75,NNE,24,3.0,14.0,97,0.00,,---,0.00,VWS V14.01,2013-02-08 22:48:00,
2013-02-08 17:50:00,32.4,31.6,29.75,NNE,14,6.0,14.0,97,0.00,,---,0.00,VWS V14.01,2013-02-08 22:50:00,
2013-02-08 17:53:00,32.4,31.6,29.75,North,11,3.0,6.0,97,0.00,,---,0.00,VWS V14.01,2013-02-08 22:53:00,
2013-02-08 17:55:00,32.4,31.6,29.75,NE,41,5.0,8.0,97,0.00,,---,0.00,VWS V14.01,2013-02-08 22:55:00,
2013-02-08 17:58:00,32.4,31.6,29.75,NE,37,3.0,6.0,97,0.00,,---,0.00,VWS V14.01,2013-02-08 22:58:00,
2013-02-08 18:00:00,32.4,31.6,29.74,NE,34,6.0,11.0,97,0.00,,---,0.00,VWS V14.01,2013-02-08 23:00:00,
2013-02-08 18:03:00,32.4,31.6,29.74,NNE,28,3.0,13.0,97,0.00,,---,0.00,VWS V14.01,2013-02-08 23:03:00,
2013-02-08 18:05:00,32.4,31.6,29.74,NE,34,11.0,13.0,97,0.00,,---,0.00,VWS V14.01,2013-02-08 23:05:00,
2013-02-08 18:08:00,32.4,31.6,29.74,NNE,31,5.0,11.0,97,0.00,,---,0.00,VWS V14.01,2013-02-08 23:08:00,
2013-02-08 18:10:00,32.4,31.6,29.74,NE,34,10.0,11.0,97,0.00,,---,0.00,VWS V14.01,2013-02-08 23:10:00,
2013-02-08 18:13:00,32.4,31.6,29.74,NE,38,5.0,10.0,97,0.00,,---,0.00,VWS V14.01,2013-02-08 23:13:00,
2013-02-08 18:15:00,32.4,31.6,29.73,NNE,13,5.0,11.0,97,0.00,,---,0.00,VWS V14.01,2013-02-08 23:15:00,
2013-02-08 18:18:00,32.4,31.6,29.73,NE,42,4.0,13.0,97,0.00,,---,0.00,VWS V14.01,2013-02-08 23:18:00,
2013-02-08 18:20:00,32.4,31.6,29.73,NNE,14,8.0,14.0,97,0.00,,---,0.00,VWS V14.01,2013-02-08 23:20:00,
2013-02-08 18:23:00,32.4,31.6,29.73,North,7,11.0,11.0,97,0.00,,---,0.00,VWS V14.01,2013-02-08 23:23:00,
2013-02-08 18:25:00,32.4,31.6,29.73,NE,38,7.0,11.0,97,0.00,,---,0.00,VWS V14.01,2013-02-08 23:25:00,
2013-02-08 18:28:00,32.4,31.6,29.73,NNE,28,7.0,8.0,97,0.00,,---,0.00,VWS V14.01,2013-02-08 23:28:00,
2013-02-08 18:30:00,32.4,31.6,29.69,NE,41,3.0,8.0,97,0.00,,---,0.00,VWS V14.01,2013-02-08 23:30:00,
2013-02-08 18:33:00,32.4,31.6,29.69,NNE,25,10.0,13.0,97,0.00,,---,0.00,VWS V14.01,2013-02-08 23:33:00,
2013-02-08 18:35:00,32.4,31.6,29.69,NE,40,7.0,13.0,97,0.00,,---,0.00,VWS V14.01,2013-02-08 23:35:00,
2013-02-08 18:38:00,32.4,31.6,29.69,North,10,12.0,12.0,97,0.00,,---,0.00,VWS V14.01,2013-02-08 23:38:00,
2013-02-08 18:40:00,32.4,31.6,29.69,NNE,28,3.0,16.0,97,0.00,,---,0.00,VWS V14.01,2013-02-08 23:40:00,
2013-02-08 18:43:00,32.4,31.6,29.69,NNE,27,1.0,3.0,97,0.00,,---,0.00,VWS V14.01,2013-02-08 23:43:00,
2013-02-08 18:45:00,32.4,31.6,29.65,NNE,25,0.0,3.0,97,0.00,,---,0.00,VWS V14.01,2013-02-08 23:45:00,
2013-02-08 18:48:00,32.4,31.6,29.65,NNE,30,0.0,0.0,97,0.00,,---,0.00,VWS V14.01,2013-02-08 23:48:00,
2013-02-08 18:50:00,32.4,31.6,29.65,NNE,30,0.0,0.0,97,0.00,,---,0.00,VWS V14.01,2013-02-08 23:50:00,
2013-02-08 18:53:00,32.4,31.6,29.65,ENE,65,0.0,0.0,97,0.00,,---,0.00,VWS V14.01,2013-02-08 23:53:00,
2013-02-08 18:55:00,32.4,31.6,29.65,ENE,58,0.0,0.0,97,0.00,,---,0.00,VWS V14.01,2013-02-08 23:55:00,
2013-02-08 18:58:00,32.4,31.6,29.65,ENE,58,0.0,0.0,97,0.00,,---,0.00,VWS V14.01,2013-02-08 23:58:00,
2013-02-08 19:00:00,32.4,31.6,29.65,ENE,58,0.0,0.0,97,0.00,,---,0.00,VWS V14.01,2013-02-09 00:00:00,
2013-02-08 19:03:00,32.4,31.6,29.65,NE,41,0.0,0.0,97,0.00,,---,0.00,VWS V14.01,2013-02-09 00:03:00,
2013-02-08 19:05:00,32.2,31.5,29.65,NE,37,0.0,0.0,97,0.00,,---,0.00,VWS V14.01,2013-02-09 00:05:00,
2013-02-08 19:08:00,32.4,31.6,29.65,North,1,0.0,0.0,97,0.00,,---,0.00,VWS V14.01,2013-02-09 00:08:00,
2013-02-08 19:10:00,32.4,31.6,29.65,NNE,27,0.0,0.0,97,0.00,,---,0.00,VWS V14.01,2013-02-09 00:10:00,
2013-02-08 19:13:00,32.2,31.5,29.65,NE,41,0.0,0.0,97,0.00,,---,0.00,VWS V14.01,2013-02-09 00:13:00,
2013-02-08 19:15:00,32.2,31.5,29.62,NNE,27,0.0,0.0,97,0.00,,---,0.00,VWS V14.01,2013-02-09 00:15:00,
2013-02-08 19:18:00,32.2,31.5,29.62,NNE,30,0.0,0.0,97,0.00,,---,0.00,VWS V14.01,2013-02-09 00:18:00,
2013-02-08 19:20:00,32.2,31.5,29.62,NNE,28,0.0,0.0,97,0.00,,---,0.00,VWS V14.01,2013-02-09 00:20:00,
2013-02-08 19:23:00,32.2,31.7,29.62,NNE,20,0.0,0.0,98,0.00,,---,0.00,VWS V14.01,2013-02-09 00:23:00,
2013-02-08 19:25:00,32.2,31.7,29.62,NNE,25,0.0,0.0,98,0.00,,---,0.00,VWS V14.01,2013-02-09 00:25:00,
2013-02-08 19:28:00,32.2,31.7,29.62,NNE,28,0.0,0.0,98,0.00,,---,0.00,VWS V14.01,2013-02-09 00:28:00,
2013-02-08 19:30:00,32.2,31.7,29.62,NNE,28,0.0,0.0,98,0.00,,---,0.00,VWS V14.01,2013-02-09 00:30:00,
2013-02-08 19:33:00,32.2,31.7,29.62,NE,48,0.0,0.0,98,0.00,,---,0.00,VWS V14.01,2013-02-09 00:33:00,
2013-02-08 19:35:00,32.2,31.7,29.62,NE,37,0.0,0.0,98,0.00,,---,0.00,VWS V14.01,2013-02-09 00:35:00,
2013-02-08 19:38:00,32.2,31.7,29.62,NNE,21,0.0,0.0,98,0.00,,---,0.00,VWS V14.01,2013-02-09 00:38:00,
2013-02-08 19:40:00,32.2,31.7,29.62,NNE,32,0.0,0.0,98,0.00,,---,0.00,VWS V14.01,2013-02-09 00:40:00,
2013-02-08 19:43:00,32.2,31.7,29.62,NNE,30,0.0,0.0,98,0.00,,---,0.00,VWS V14.01,2013-02-09 00:43:00,
2013-02-08 19:45:00,32.2,31.7,29.59,NNE,25,0.0,0.0,98,0.00,,---,0.00,VWS V14.01,2013-02-09 00:45:00,
2013-02-08 19:48:00,32.2,31.7,29.59,NNE,28,0.0,0.0,98,0.00,,---,0.00,VWS V14.01,2013-02-09 00:48:00,
2013-02-08 19:50:00,32.2,31.7,29.59,NNE,25,0.0,0.0,98,0.00,,---,0.00,VWS V14.01,2013-02-09 00:50:00,
2013-02-08 19:53:00,32.2,31.7,29.59,ENE,58,0.0,0.0,98,0.00,,---,0.00,VWS V14.01,2013-02-09 00:53:00,
2013-02-08 19:55:00,32.2,31.7,29.59,North,11,0.0,0.0,98,0.00,,---,0.00,VWS V14.01,2013-02-09 00:55:00,
2013-02-08 19:58:00,32.2,31.7,29.59,NNE,32,0.0,0.0,98,0.00,,---,0.00,VWS V14.01,2013-02-09 00:58:00,
2013-02-08 20:04:00,32.2,31.7,29.56,NNE,25,0.0,0.0,98,0.00,,---,0.00,VWS V14.01,2013-02-09 01:04:00,
2013-02-08 20:05:00,32.2,31.7,29.56,NNE,28,0.0,0.0,98,0.00,,---,0.00,VWS V14.01,2013-02-09 01:05:00,
2013-02-08 20:09:00,32.2,31.7,29.56,North,8,0.0,0.0,98,0.00,,---,0.00,VWS V14.01,2013-02-09 01:09:00,
2013-02-08 20:10:00,32.2,31.7,29.56,North,0,0.0,0.0,98,0.00,,---,0.00,VWS V14.01,2013-02-09 01:10:00,
2013-02-08 20:15:00,32.2,31.7,29.53,North,0,0.0,0.0,98,0.00,,---,0.00,VWS V14.01,2013-02-09 01:15:00,
2013-02-08 20:20:00,32.2,31.7,29.53,North,0,0.0,0.0,98,0.00,,---,0.00,VWS V14.01,2013-02-09 01:20:00,
2013-02-08 20:25:00,32.2,31.7,29.53,North,0,0.0,0.0,98,0.00,,---,0.00,VWS V14.01,2013-02-09 01:25:00,
2013-02-08 20:30:00,32.2,31.7,29.51,North,0,0.0,0.0,98,0.00,,---,0.00,VWS V14.01,2013-02-09 01:30:00,
2013-02-08 20:35:00,32.2,31.7,29.51,North,0,0.0,0.0,98,0.00,,---,0.00,VWS V14.01,2013-02-09 01:35:00,
2013-02-08 20:40:00,32.2,31.7,29.51,North,0,0.0,0.0,98,0.00,,---,0.00,VWS V14.01,2013-02-09 01:40:00,
2013-02-08 20:45:00,32.2,31.7,29.51,North,0,0.0,0.0,98,0.00,,---,0.00,VWS V14.01,2013-02-09 01:45:00,
2013-02-08 20:53:00,32.2,31.7,29.51,North,0,0.0,0.0,98,0.00,,---,0.00,VWS V14.01,2013-02-09 01:53:00,
2013-02-08 20:55:00,32.1,31.6,29.51,North,10,0.0,0.0,98,0.00,,---,0.00,VWS V14.01,2013-02-09 01:55:00,
2013-02-08 20:58:00,32.1,31.6,29.51,North,0,0.0,0.0,98,0.00,,---,0.00,VWS V14.01,2013-02-09 01:58:00,
2013-02-08 21:00:00,32.1,31.6,29.52,North,8,0.0,0.0,98,0.00,,---,0.00,VWS V14.01,2013-02-09 02:00:00,
2013-02-08 21:03:00,32.1,31.6,29.52,NNE,32,0.0,0.0,98,0.00,,---,0.00,VWS V14.01,2013-02-09 02:03:00,
2013-02-08 21:05:00,32.1,31.6,29.52,NNE,25,0.0,0.0,98,0.00,,---,0.00,VWS V14.01,2013-02-09 02:05:00,
2013-02-08 21:08:00,32.1,31.6,29.52,NNE,27,0.0,0.0,98,0.00,,---,0.00,VWS V14.01,2013-02-09 02:08:00,
2013-02-08 21:10:00,32.1,31.6,29.52,NNE,30,0.0,0.0,98,0.00,,---,0.00,VWS V14.01,2013-02-09 02:10:00,
2013-02-08 21:13:00,32.1,31.6,29.52,NNE,30,0.0,0.0,98,0.00,,---,0.00,VWS V14.01,2013-02-09 02:13:00,
2013-02-08 21:15:00,32.1,31.6,29.52,NNE,30,0.0,0.0,98,0.00,,---,0.00,VWS V14.01,2013-02-09 02:15:00,
2013-02-08 21:18:00,32.1,31.6,29.52,NNE,30,0.0,0.0,98,0.00,,---,0.00,VWS V14.01,2013-02-09 02:18:00,
2013-02-08 21:20:00,32.1,31.6,29.52,NNE,30,0.0,0.0,98,0.00,,---,0.00,VWS V14.01,2013-02-09 02:20:00,
2013-02-08 21:23:00,32.1,31.6,29.52,NNE,30,0.0,0.0,98,0.00,,---,0.00,VWS V14.01,2013-02-09 02:23:00,
2013-02-08 21:25:00,32.1,31.6,29.52,NNE,30,0.0,0.0,98,0.00,,---,0.00,VWS V14.01,2013-02-09 02:25:00,
2013-02-08 21:28:00,32.1,31.6,29.52,NNE,30,0.0,0.0,98,0.00,,---,0.00,VWS V14.01,2013-02-09 02:28:00,
2013-02-08 21:30:00,32.1,31.6,29.50,NNE,30,0.0,0.0,98,0.00,,---,0.00,VWS V14.01,2013-02-09 02:30:00,
2013-02-08 21:33:00,32.1,31.6,29.50,NNE,30,0.0,0.0,98,0.00,,---,0.00,VWS V14.01,2013-02-09 02:33:00,
2013-02-08 21:35:00,32.1,31.6,29.50,NNE,30,0.0,0.0,98,0.00,,---,0.00,VWS V14.01,2013-02-09 02:35:00,
2013-02-08 21:38:00,32.1,31.6,29.50,NNE,30,0.0,0.0,98,0.00,,---,0.00,VWS V14.01,2013-02-09 02:38:00,
2013-02-08 21:40:00,32.1,31.6,29.50,NNE,30,0.0,0.0,98,0.00,,---,0.00,VWS V14.01,2013-02-09 02:40:00,
2013-02-08 21:43:00,31.9,31.4,29.50,NNE,30,0.0,0.0,98,0.00,,---,0.00,VWS V14.01,2013-02-09 02:43:00,
2013-02-08 21:45:00,31.9,31.4,29.49,NNE,30,0.0,0.0,98,0.00,,---,0.00,VWS V14.01,2013-02-09 02:45:00,
2013-02-08 21:48:00,31.9,31.4,29.49,NNE,30,0.0,0.0,98,0.00,,---,0.00,VWS V14.01,2013-02-09 02:48:00,
2013-02-08 21:50:00,31.9,31.4,29.49,NNE,30,0.0,0.0,98,0.00,,---,0.00,VWS V14.01,2013-02-09 02:50:00,
2013-02-08 21:53:00,31.9,31.4,29.49,NNE,30,0.0,0.0,98,0.00,,---,0.00,VWS V14.01,2013-02-09 02:53:00,
2013-02-08 21:55:00,31.9,31.4,29.49,NNE,30,0.0,0.0,98,0.00,,---,0.00,VWS V14.01,2013-02-09 02:55:00,
2013-02-08 21:58:00,31.9,31.4,29.49,NNE,30,0.0,0.0,98,0.00,,---,0.00,VWS V14.01,2013-02-09 02:58:00,
2013-02-08 22:00:00,31.8,31.3,29.48,NNE,30,0.0,0.0,98,0.00,,---,0.00,VWS V14.01,2013-02-09 03:00:00,
2013-02-08 22:03:00,31.8,31.3,29.48,NNE,30,0.0,0.0,98,0.00,,---,0.00,VWS V14.01,2013-02-09 03:03:00,
2013-02-08 22:05:00,31.8,31.3,29.48,NNE,30,0.0,0.0,98,0.00,,---,0.00,VWS V14.01,2013-02-09 03:05:00,
2013-02-08 22:08:00,31.6,31.1,29.48,NNE,30,0.0,0.0,98,0.00,,---,0.00,VWS V14.01,2013-02-09 03:08:00,
2013-02-08 22:15:00,31.5,31.0,29.44,NNE,30,0.0,0.0,98,0.00,,---,0.00,VWS V14.01,2013-02-09 03:15:00,
2013-02-08 22:20:00,31.3,30.8,29.44,NNE,30,0.0,0.0,98,0.00,,---,0.00,VWS V14.01,2013-02-09 03:20:00,
2013-02-08 22:25:00,31.2,30.7,29.44,NNE,30,0.0,0.0,98,0.00,,---,0.00,VWS V14.01,2013-02-09 03:25:00,
2013-02-08 22:30:00,31.2,30.7,29.42,NNE,30,0.0,0.0,98,0.00,,---,0.00,VWS V14.01,2013-02-09 03:30:00,
2013-02-08 22:35:00,31.0,30.5,29.42,NNE,30,0.0,0.0,98,0.00,,---,0.00,VWS V14.01,2013-02-09 03:35:00,
2013-02-08 22:40:00,31.0,30.5,29.42,NNE,30,0.0,0.0,98,0.00,,---,0.00,VWS V14.01,2013-02-09 03:40:00,
2013-02-08 22:45:00,30.9,30.4,29.41,NNE,30,0.0,0.0,98,0.00,,---,0.00,VWS V14.01,2013-02-09 03:45:00,
2013-02-08 22:50:00,30.7,30.2,29.41,NNE,30,0.0,0.0,98,0.00,,---,0.00,VWS V14.01,2013-02-09 03:50:00,
2013-02-08 22:55:00,30.6,30.1,29.41,NNE,30,0.0,0.0,98,0.00,,---,0.00,VWS V14.01,2013-02-09 03:55:00,
2013-02-08 23:00:00,30.4,29.9,29.39,NNE,30,0.0,0.0,98,0.00,,---,0.00,VWS V14.01,2013-02-09 04:00:00,
2013-02-08 23:05:00,30.4,29.9,29.39,NNE,30,0.0,0.0,98,0.00,,---,0.00,VWS V14.01,2013-02-09 04:05:00,
2013-02-08 23:10:00,30.3,29.8,29.39,NNE,30,0.0,0.0,98,0.00,,---,0.00,VWS V14.01,2013-02-09 04:10:00,
2013-02-08 23:15:00,30.3,29.8,29.37,NNE,30,0.0,0.0,98,0.00,,---,0.00,VWS V14.01,2013-02-09 04:15:00,
2013-02-08 23:20:00,30.3,29.8,29.37,NNE,30,0.0,0.0,98,0.00,,---,0.00,VWS V14.01,2013-02-09 04:20:00,
2013-02-08 23:25:00,30.3,29.8,29.37,NNE,30,0.0,0.0,98,0.00,,---,0.00,VWS V14.01,2013-02-09 04:25:00,
2013-02-08 23:30:00,30.1,29.6,29.38,NNE,30,0.0,0.0,98,0.00,,---,0.00,VWS V14.01,2013-02-09 04:30:00,
2013-02-08 23:35:00,30.0,29.5,29.38,NNE,30,0.0,0.0,98,0.00,,---,0.00,VWS V14.01,2013-02-09 04:35:00,
2013-02-08 23:40:00,30.0,29.5,29.38,NNE,30,0.0,0.0,98,0.00,,---,0.00,VWS V14.01,2013-02-09 04:40:00,
2013-02-08 23:45:00,29.8,29.3,29.37,NNE,30,0.0,0.0,98,0.00,,---,0.00,VWS V14.01,2013-02-09 04:45:00,
2013-02-08 23:50:00,29.7,29.2,29.37,NNE,30,0.0,0.0,98,0.00,,---,0.00,VWS V14.01,2013-02-09 04:50:00,
2013-02-08 23:55:00,29.7,29.2,29.37,NNE,30,0.0,0.0,98,0.00,,---,0.00,VWS V14.01,2013-02-09 04:55:00,